Tracking 18624 objects as of 27-April-2017
HD Live streaming from Space Station
objects crossing your sky now

ERS 1

Track ERS 1 now!
10-day predictions
ERS 1 is classified as:


NORAD ID: 21574
Int'l Code: 1991-050A
Perigee: 749.2 km
Apogee: 798.1 km
Inclination: 98.5 °
Period: 100.2 minutes
Semi major axis: 7144 km
RCS: 11.0086 m2 (large)
Launch date: July 17, 1991
Source: European Space Agency (ESA)
Launch site: FRENCH GUIANA (FRGUI)
Your satellite tracking list
Your tracking list is empty





NASA's NSSDC Master Catalog

Two Line Element Set (TLE):
1 21574U 91050A   17116.89933337 +.00000102 +00000-0 +47999-4 0  9990
2 21574 098.4556 064.8831 0034160 107.4341 253.0585 14.37577806350231
Source of the keplerian elements: AFSPC